Question-and-Answer Resource for the Building Energy Modeling Community
Get started with the Help page
Ask Your Question

Aly ElHefny's profile - karma

Aly ElHefny's karma change log

15 0 Modify effectiveness in rotational HeatExchanger:AirToAir:SensibleAndLatent ( 2021-09-22 04:09:41 -0600 )

10 0 Modify effectiveness in rotational HeatExchanger:AirToAir:SensibleAndLatent ( 2021-09-22 04:09:29 -0600 )

10 0 Solar Irradiance [TMY vs Actual data] ( 2021-09-14 18:07:24 -0600 )

10 0 ReadVarsEso message ( 2021-09-06 09:17:33 -0600 )

2 0 Using custom solar profile within TMY file ( 2021-09-01 13:43:27 -0600 )

10 0 Ideal load air system returning low load values ( 2021-08-31 20:31:53 -0600 )

10 0 Using custom solar profile within TMY file ( 2021-08-30 11:09:42 -0600 )

10 0 Ideal load air system returning low load values ( 2021-08-26 07:46:47 -0600 )

10 0 Report VAV/CAV reheat load in EnergyPlus ( 2021-08-25 11:05:28 -0600 )

10 0 how can i get inlet and out let air temperature of the cooling coil in energyplus ( 2021-08-24 11:04:45 -0600 )

10 0 Report VAV/CAV reheat load in EnergyPlus ( 2021-08-24 11:04:20 -0600 )

0 -1 Partners required ( 2021-07-17 09:44:42 -0600 )

10 0 Problem defining FMU output ( 2021-03-18 06:58:04 -0600 )

10 0 Question about load in residential building ( 2020-11-25 13:13:29 -0600 )

10 0 Question about load in residential building ( 2020-11-14 10:02:49 -0600 )

10 0 Weather file, cannot find the first day ( 2020-11-09 07:15:25 -0600 )

10 0 Question about load in residential building ( 2020-11-08 12:14:16 -0600 )

0 -1 oconv: fatal - (E:\sky.mat): undefined modifier " ■#" ( 2020-11-06 19:42:23 -0600 )

10 0 Weather file, cannot find the first day ( 2020-11-04 10:29:15 -0600 )

10 0 Weather file, cannot find the first day ( 2020-11-04 09:43:58 -0600 )

2 0 Generating weather file from one year measured data ( 2020-10-24 15:55:17 -0600 )

10 0 Generating weather file from one year measured data ( 2020-10-24 11:01:22 -0600 )

10 0 Humidifier latent only ( 2020-10-08 12:09:49 -0600 )

10 0 Changing anti-cycling period ( 2020-07-03 17:50:50 -0600 )

10 0 what's the best program for modeling and simulating a recirculating loop with various components connected such as the Domestic Hot Water System... ( 2020-07-02 16:40:15 -0600 )

10 0 Is Randomizing Internal load possible in PAT ? ( 2020-06-24 13:56:51 -0600 )

10 0 Wrapping EP FMU for model exchange ( 2020-06-18 14:48:26 -0600 )

10 0 Can I know the values autosized by EP ? ( 2020-06-18 12:43:43 -0600 )

10 0 Can I know the values autosized by EP ? ( 2020-06-18 11:37:30 -0600 )

10 0 Running multiple EP FMUs ( 2020-06-15 17:46:06 -0600 )

10 0 Water node mass flow rate in EMS ( 2020-06-15 00:12:34 -0600 )

10 0 Compressor power of Cooling Coil ( 2020-06-15 00:11:06 -0600 )

10 0 Energyplus intermediate outputs logging ( 2020-06-15 00:10:29 -0600 )

10 0 Water node mass flow rate in EMS ( 2020-06-15 00:09:42 -0600 )

2 0 Energyplus intermediate outputs logging ( 2020-06-14 16:35:21 -0600 )

10 0 Energyplus intermediate outputs logging ( 2020-06-14 16:23:46 -0600 )

10 0 Energyplus intermediate outputs logging ( 2020-06-14 11:01:09 -0600 )

10 0 Water node mass flow rate in EMS ( 2020-06-13 13:28:06 -0600 )

2 0 Compressor power of Cooling Coil ( 2020-06-09 15:16:51 -0600 )

10 0 Compressor power of Cooling Coil ( 2020-06-09 12:48:31 -0600 )

10 0 Make My own Output Variable in Energyplus? ( 2020-05-27 13:22:46 -0600 )

0 -15 Make My own Output Variable in Energyplus? ( 2020-05-27 09:20:22 -0600 )

15 0 Make My own Output Variable in Energyplus? ( 2020-05-27 09:20:20 -0600 )

0 -15 Make My own Output Variable in Energyplus? ( 2020-05-27 09:20:17 -0600 )

15 0 Make My own Output Variable in Energyplus? ( 2020-05-27 09:20:16 -0600 )

10 0 Make My own Output Variable in Energyplus? ( 2020-05-27 03:11:29 -0600 )

10 0 Make My own Output Variable in Energyplus? ( 2020-05-26 15:55:33 -0600 )

10 0 Set-point tolerance in energyplus ( 2020-05-20 10:31:28 -0600 )

10 0 Error Running EP FMU export on Simulink ( 2020-03-02 06:04:16 -0600 )

10 0 How is comfort zone defined in climate consultant using California Energy Code Comfort Model ( 2018-08-21 13:52:39 -0600 )

10 0 PV panels for certain weather files problem ( 2018-04-27 13:46:39 -0600 )

10 0 Help with Flat Plate Solar Collector temperature out of range errors (too high and too low) ( 2018-04-15 11:26:48 -0600 )

10 0 Air to air rotary exchanger rpm ( 2017-12-05 07:35:48 -0600 )

10 0 How is comfort zone defined in climate consultant using California Energy Code Comfort Model ( 2017-05-03 07:31:30 -0600 )

10 0 How is comfort zone defined in climate consultant using California Energy Code Comfort Model ( 2017-05-03 00:29:13 -0600 )

10 0 Air to air rotary exchanger rpm ( 2017-04-18 07:33:30 -0600 )